Flag for U.S.A. Weather past 2 weeks in Alpena, Michigan, U.S.A.

Now
67 °F

Clear.


Feels Like: 67 °F
Forecast: 58 / 76 °F
Wind: 9 mph from Southwest

Location: Alpena County Regional Airport

Current Time: May 26, 2015 at 3:00:13 AM

Latest Report: May 26, 2015 at 1:54 AM


Visibility: 10 mi

Pressure: 29.89 "Hg

Humidity: 79%

Dew point: 60 °F

Location of AlpenaLocation

Historic Weather in Alpena — Graph

°F

Alpena temperature yesterday

Maximum temperature yesterday: 78 °F (at 5:54 PM)
Minimum temperature yesterday: 53 °F (at 8:54 AM)
Average temperature yesterday: 64 °F

Past Weeks' High & Low Weather Summary

 TemperatureHumidityPressure
High85 °F (May 18, 3:54 PM)100% (May 11, 6:54 AM)30.48 "Hg (May 11, 6:54 AM)
Low28 °F (May 23, 5:54 AM)18% (May 23, 4:54 PM)29.67 "Hg (May 12, 1:54 AM)
Average54 °F67%30.07 "Hg
* Reported May 11 1:54 AM — May 26 1:54 AM, Alpena, Weather by CustomWeather, © 2015

Note: Actual official high and low records may vary slightly from our data, if they occured in-between our weather recording intervals... More about our weather records

Advertising

Alpena weather history for previous 24 hours

 ConditionsComfort  
Time TempWeatherWind HumidityBarometerVisibility
1:54 AM
Tue, May 26
67 °FClear.9 mph79%29.89 "Hg10 mi
12:54 AM67 °FClear.7 mph81%29.88 "Hg10 mi
11:54 PM
Mon, May 25
68 °FClear.9 mph78%29.88 "Hg10 mi
10:54 PM67 °FClear.5 mph81%29.86 "Hg10 mi
9:54 PM69 °FSunny.7 mph79%29.84 "Hg10 mi
8:54 PM72 °FPartly sunny.9 mph71%29.82 "Hg10 mi
7:54 PM75 °FPartly sunny.10 mph64%29.79 "Hg10 mi
6:54 PM77 °FPartly sunny.10 mph60%29.78 "Hg10 mi
5:54 PM78 °FScattered clouds.18 mph58%29.78 "Hg10 mi
4:54 PM77 °FScattered clouds.12 mph69%29.76 "Hg10 mi
3:54 PM73 °FBroken clouds.8 mph84%29.79 "Hg10 mi
2:58 PM71 °FHeavy rain. Mostly cloudy.10 mph84%29.82 "Hg2 mi
1:54 PM70 °FOvercast.6 mph79%29.84 "Hg10 mi
12:54 PM66 °FOvercast.6 mph84%29.86 "Hg10 mi
11:54 AM63 °FLight rain. Overcast.5 mph90%29.88 "Hg10 mi
10:54 AM59 °FLight rain. Broken clouds.No wind90%29.89 "Hg10 mi
10:02 AM55 °FBroken clouds.3 mph90%29.91 "Hg8 mi
8:54 AM53 °FLow clouds.7 mph96%29.93 "Hg8 mi
7:54 AM54 °FLight rain. Low clouds.6 mph93%29.94 "Hg7 mi
6:54 AM54 °FLight rain. Fog.5 mph97%29.96 "Hg5 mi
6:02 AM54 °FLight rain. Mostly cloudy.12 mph97%29.95 "Hg8 mi
5:54 AM54 °FRain. Fog.13 mph97%29.95 "Hg4 mi
4:54 AM56 °FLight rain. Fog.13 mph97%29.97 "Hg5 mi
3:54 AM57 °FRain. Fog.13 mph93%29.99 "Hg2 mi
3:03 AM57 °FRain. Fog.7 mph96%30.03 "Hg4 mi
Weather by CustomWeather, © 2015

See weather overviewHow to use our weather pages